GOKTURK 2

Last updated on Mon Sep 21 2026 00:02:45 GMT+0000 (Coordinated Universal Time)

1 39030U 12073A 26263.62679289 .00000118 00000+0 24244-4 0 9995 2 39030 97.6788 96.2721 0002030 66.3434 293.7989 14.75615644738581
UTC large
Height (km)
Speed (km/s)
/
Latitude / Longitude
Inclination (degrees)
Orbital Period (minutes)
Azimuth
Elevation
Range (km)
Doppler Factor

Next 0 passes for location: London (51.5072 / 0.1276)

No passes found over London.
GOKTURK 2